Le nostre stazioni meteo in Italia

Pubblicità
Il mio iltempo24.it
Ferrara, Italia (16133): Temperatura & dewpoint: 30.05.2020 21:00:00 - 05.06.2020 21:00:00 (CEST)Ferrara, Italia (16133): velocità del vento: 30.05.2020 21:00:00 - 05.06.2020 21:00:00 (CEST)Ferrara, Italia (16133): direzione del vento: 30.05.2020 21:00:00 - 05.06.2020 21:00:00 (CEST)Ferrara, Italia (16133): reduced air pressure: 30.05.2020 21:00:00 - 05.06.2020 21:00:00 (CEST)Ferrara, Italia (16133): precipitazioni: 30.05.2020 21:00:00 - 05.06.2020 21:00:00 (CEST)
Data & Tempo tt [°C] td [°C] ff [km/h] ff [kn] dd ppp [hPa] rr [mm]
05.06.2020 21:00:00 22,1 9,2 - - - 1001,8 -
05.06.2020 20:00:00 24,9 10,7 2 1 OSO 1000,9 0,0
05.06.2020 19:00:00 25,0 11,2 4 2 O 1000,1 0,0
05.06.2020 18:00:00 24,6 7,7 - - - 1000,0 -
05.06.2020 17:00:00 24,9 10,3 - - - 1000,1 -
05.06.2020 16:00:00 24,0 9,9 - - - 999,8 -
05.06.2020 15:00:00 23,6 10,2 - - - 999,4 -
05.06.2020 14:00:00 22,7 12,0 14 8 O 998,7 0,0
05.06.2020 13:00:00 21,8 12,6 11 6 O 998,4 0,0
05.06.2020 12:00:00 20,8 12,9 - - - 999,0 -
05.06.2020 11:00:00 19,2 13,7 - - - 997,9 -
05.06.2020 10:00:00 17,8 15,0 - - - 998,1 -
05.06.2020 09:00:00 17,0 15,0 11 6 ONO 997,1 0,0
05.06.2020 08:00:00 15,8 14,1 - - - 997,6 -
05.06.2020 07:00:00 15,4 13,7 - - - 996,8 -
05.06.2020 06:00:00 15,0 13,3 - - - 996,2 -
05.06.2020 05:00:00 16,1 15,1 6 3 SO 995,2 0,0
05.06.2020 04:00:00 15,4 13,7 - - - 995,2 -
05.06.2020 03:00:00 16,8 16,0 6 3 SO 994,7 0,0
05.06.2020 02:00:00 16,2 14,5 - - - 995,9 -
05.06.2020 01:00:00 16,1 14,4 - - - 995,5 -
05.06.2020 00:00:00 16,0 14,3 - - - 996,0 -
04.06.2020 23:00:00 16,3 14,6 - - - 997,0 -
04.06.2020 22:00:00 16,4 14,7 - - - 998,1 -
04.06.2020 21:00:00 16,7 16,1 12 6 ENE 997,7 5,2
04.06.2020 20:00:00 16,8 15,1 - - - 999,3 -
04.06.2020 19:00:00 17,6 15,9 - - - 999,9 -
04.06.2020 18:00:00 17,8 16,1 - - - 1000,7 -
04.06.2020 17:00:00 17,5 15,8 - - - 1001,2 -
04.06.2020 16:00:00 16,9 15,2 - - - 1001,6 -
04.06.2020 15:00:00 17,1 15,8 14 8 ENE 1001,7 1,0
04.06.2020 14:00:00 16,5 14,8 - - - 1003,3 -
04.06.2020 13:00:00 16,5 14,3 - - - 1003,5 -
04.06.2020 12:00:00 16,8 14,6 - - - 1003,8 -
04.06.2020 11:00:00 16,9 14,3 - - - 1004,0 -
04.06.2020 10:00:00 17,9 14,8 10 6 NO 1003,6 0,4
04.06.2020 09:00:00 17,7 14,4 8 5 SO 1003,6 0,8
04.06.2020 08:00:00 18,9 12,6 11 6 SO 1003,1 0,0
04.06.2020 07:00:00 17,7 10,6 7 4 SO 1003,2 0,0
04.06.2020 06:00:00 14,2 8,5 2 1 SE 1003,9 -
04.06.2020 05:00:00 14,5 7,7 2 1 SE 1004,1 -
04.06.2020 04:00:00 18,1 9,2 5 3 SSO 1004,0 0,0
04.06.2020 03:00:00 19,0 8,3 8 4 SO 1004,6 0,0
04.06.2020 02:00:00 16,3 8,7 0 0 N 1005,5 0,0
04.06.2020 01:00:00 18,0 8,8 4 2 SO 1006,0 -
04.06.2020 00:00:00 18,8 9,2 2 1 SO 1005,9 -
03.06.2020 23:00:00 21,9 10,4 8 4 OSO 1005,6 0,0
03.06.2020 22:00:00 20,4 11,8 - - - 1006,0 -
03.06.2020 21:00:00 21,6 11,0 - - - 1005,4 -
03.06.2020 20:00:00 23,9 12,2 6 3 O 1004,9 0,0
03.06.2020 19:00:00 23,5 10,5 10 6 N 1004,5 0,0
03.06.2020 18:00:00 24,4 7,5 - - - 1004,9 -
03.06.2020 17:00:00 27,5 8,4 - - - 1005,7 -
03.06.2020 16:00:00 27,2 7,6 - - - 1006,4 -
03.06.2020 15:00:00 26,2 7,2 - - - 1007,3 -
03.06.2020 14:00:00 25,9 7,5 - - - 1008,0 0,0
03.06.2020 13:00:00 25,4 8,8 - - - 1008,6 -
03.06.2020 12:00:00 24,5 10,0 12 7 O 1008,5 0,0
03.06.2020 11:00:00 22,4 11,1 - - - 1009,5 -
03.06.2020 10:00:00 20,3 10,9 - - - 1009,9 -
03.06.2020 09:00:00 18,9 11,4 - - - 1010,2 -
03.06.2020 08:00:00 16,6 11,1 - - - 1010,5 0,0
03.06.2020 07:00:00 16,2 10,3 10 6 O 1009,8 0,0
03.06.2020 06:00:00 14,5 9,7 2 1 SSO 1010,2 -
03.06.2020 05:00:00 14,4 9,2 4 2 OSO 1010,2 -
03.06.2020 04:00:00 14,7 9,7 8 4 SO 1010,6 -
03.06.2020 03:00:00 15,6 9,2 2 1 SSO 1011,4 -
03.06.2020 02:00:00 18,7 10,5 2 1 O 1011,1 0,0
03.06.2020 01:00:00 18,7 8,6 8 4 NNO 1011,4 -
03.06.2020 00:00:00 18,3 7,0 2 1 ONO 1011,9 -
02.06.2020 23:00:00 21,2 9,4 7 4 ENE 1011,5 0,0
02.06.2020 22:00:00 20,5 7,4 - - - 1011,2 -
02.06.2020 21:00:00 22,7 9,1 - - - 1010,2 -
02.06.2020 20:00:00 25,1 10,6 11 6 E 1010,3 0,0
02.06.2020 19:00:00 26,1 6,2 - - - 1010,2 -
02.06.2020 18:00:00 27,6 6,4 - - - 1010,4 -
02.06.2020 17:00:00 28,0 8,8 10 5 ONO 1010,3 0,0
02.06.2020 16:00:00 26,8 6,2 - - - 1011,6 -
02.06.2020 15:00:00 26,6 6,6 - - - 1012,4 -
02.06.2020 14:00:00 26,6 5,0 - - - 1013,1 0,0
02.06.2020 13:00:00 25,4 2,7 - - - 1013,7 -
02.06.2020 12:00:00 25,6 6,2 11 6 S 1013,7 0,0
02.06.2020 11:00:00 24,2 7,3 8 4 SSO 1014,1 0,0
02.06.2020 10:00:00 21,1 9,0 - - - 1015,2 -
02.06.2020 09:00:00 19,1 11,4 - - - 1015,4 -
02.06.2020 08:00:00 18,2 10,6 4 2 E 1015,1 0,0
02.06.2020 07:00:00 15,0 9,7 - - - 1015,8 -
02.06.2020 06:00:00 15,6 8,5 - - - 1015,9 -
02.06.2020 05:00:00 15,0 8,6 - - - 1016,2 -
02.06.2020 04:00:00 15,6 8,3 - - - 1016,6 -
02.06.2020 03:00:00 15,0 8,0 - - - 1016,8 -
02.06.2020 02:00:00 17,8 8,4 9 5 SSO 1016,6 0,0
02.06.2020 01:00:00 15,9 7,6 - - - 1017,3 -
02.06.2020 00:00:00 16,5 6,8 - - - 1017,6 -
01.06.2020 23:00:00 17,6 6,7 - - - 1017,4 -
01.06.2020 22:00:00 18,9 6,0 - - - 1017,0 -
01.06.2020 21:00:00 22,8 7,3 9 5 NE 1016,1 0,0
01.06.2020 20:00:00 23,5 5,4 - - - 1016,5 0,0
01.06.2020 19:00:00 24,2 4,5 - - - 1016,5 -
01.06.2020 18:00:00 24,8 4,5 - - - 1016,8 -
01.06.2020 17:00:00 25,4 7,0 8 4 SSE 1016,7 0,0
01.06.2020 16:00:00 25,0 6,7 7 4 SE 1016,9 0,0
01.06.2020 15:00:00 24,7 4,4 - - - 1017,6 -
01.06.2020 14:00:00 24,2 5,0 - - - 1018,0 0,0
01.06.2020 13:00:00 23,9 5,7 - - - 1018,2 -
01.06.2020 12:00:00 22,3 6,0 - - - 1018,3 -
01.06.2020 11:00:00 21,4 6,4 - - - 1018,3 -
01.06.2020 10:00:00 19,7 7,0 - - - 1018,5 -
01.06.2020 09:00:00 19,9 8,2 5 3 SSO 1018,5 0,0
01.06.2020 08:00:00 16,8 11,3 - - - 1018,5 0,0
01.06.2020 07:00:00 13,7 9,3 - - - 1018,4 -
01.06.2020 06:00:00 13,5 8,9 - - - 1018,2 -
01.06.2020 05:00:00 13,5 8,3 - - - 1018,1 -
01.06.2020 04:00:00 14,0 8,8 - - - 1018,0 -
01.06.2020 03:00:00 14,3 9,5 - - - 1017,8 -
01.06.2020 02:00:00 15,6 9,5 6 4 SSO 1017,1 0,0
01.06.2020 01:00:00 13,9 8,3 - - - 1017,6 -
01.06.2020 00:00:00 14,6 8,0 - - - 1017,3 -
31.05.2020 23:00:00 16,8 9,0 10 6 ENE 1016,4 0,0
31.05.2020 22:00:00 16,5 6,0 - - - 1015,9 -
31.05.2020 21:00:00 18,4 5,5 - - - 1015,4 -
31.05.2020 20:00:00 20,8 5,8 11 6 ENE 1014,9 0,0
31.05.2020 19:00:00 21,6 5,4 - - - 1014,6 -
31.05.2020 18:00:00 21,5 5,7 - - - 1014,8 -
31.05.2020 17:00:00 21,3 5,2 - - - 1015,2 -
31.05.2020 16:00:00 21,0 5,3 - - - 1015,6 -
31.05.2020 15:00:00 21,6 5,0 - - - 1015,9 -
31.05.2020 14:00:00 20,1 5,6 - - - 1016,3 0,0
31.05.2020 13:00:00 20,8 6,6 - - - 1016,6 -
31.05.2020 12:00:00 19,9 7,2 - - - 1017,2 -
31.05.2020 11:00:00 19,2 7,5 - - - 1017,6 -
31.05.2020 10:00:00 18,0 10,1 9 5 ENE 1017,1 0,0
31.05.2020 09:00:00 17,2 10,6 6 4 ENE 1017,1 0,0
31.05.2020 08:00:00 16,3 9,9 8 4 E 1016,9 0,0
31.05.2020 07:00:00 14,9 10,1 - - - 1017,1 -
31.05.2020 06:00:00 14,8 9,1 - - - 1017,0 -
31.05.2020 05:00:00 14,9 8,8 - - - 1017,0 -
31.05.2020 04:00:00 15,6 9,9 8 5 NE 1016,6 0,0
31.05.2020 03:00:00 15,5 8,7 - - - 1017,5 -
31.05.2020 02:00:00 15,9 9,5 - - - 1017,6 0,0
31.05.2020 01:00:00 15,8 8,5 - - - 1017,5 -
31.05.2020 00:00:00 15,8 8,5 - - - 1017,3 -
30.05.2020 23:00:00 16,4 7,8 - - - 1017,1 -
30.05.2020 22:00:00 16,8 7,1 - - - 1016,7 -
30.05.2020 21:00:00 18,3 6,7 - - - 1016,0 -

tt = Temperatura
td = dewpoint
ff = velocità del vento
dd = direzione del vento
ppp = reduced air pressure
rr = precipitazioni

Stazioni seguenti

WeatherPro
AMSI
MeteoEarth